Location: ??????????
(55.6411°N, 39.0839°E)
Time: 22:38:58
(UTC+00:00)

Daily predictions for brighter satellites

Satellite Brightness Start Highest point End
(mag) Time Altitude Azimuth Time Altitude Azimuth Time Altitude Azimuth
Aureole 3 Rocket 4.4 13:30:38 10° SSW 13:35:17 56° WNW 13:41:51 10° N
ARIANE 5 R/B 3.2 13:34:20 10° ESE 13:38:49 33° ENE 13:43:22 10° N
Cosmos 1782 4.1 13:36:32 10° SE 13:38:58 17° E 13:41:25 10° NE
Cosmos 2208 Rocket 4.0 13:34:05 10° NNW 13:39:13 58° ENE 13:44:19 10° SE
ATLAS CENTAUR R/B 0.7 13:36:29 10° NW 13:39:48 86° NE 13:43:00 10° SE
H-2A R/B 3.9 13:37:50 10° N 13:41:10 30° WNW 13:44:26 10° SW
Meteor 2-1 Rocket 4.4 13:36:29 10° S 13:42:25 84° ESE 13:48:16 10° NNE
Cosmos 1758 Rocket 4.0 13:38:48 10° N 13:42:53 39° ENE 13:46:54 10° SE
Cosmos 1844 Rocket 4.2 13:39:35 10° NNW 13:43:24 18° N 13:47:14 10° NE
NOSS 3-2 (A) 4.2 13:39:24 10° S 13:43:51 30° ESE 13:49:03 10° ENE
Lacrosse 4 Rocket 1.5 13:39:52 10° SSW 13:43:52 59° SE 13:47:49 10° NE
SL-16 R/B 3.0 13:38:51 10° NNE 13:44:49 44° E 13:50:42 10° S
CZ-2D R/B 4.1 13:46:13 10° ESE 13:48:35 20° ENE 13:50:57 10° NNE
Cosmos 2098 Rocket 4.2 13:46:21 10° SE 13:49:49 25° E 13:53:45 10° NNE
Cosmos 2151 3.7 13:46:21 10° N 13:50:01 29° ENE 13:53:41 10° SE
Cosmos 968 Rocket 4.2 13:44:57 10° SW 13:50:02 52° NW 13:55:12 10° NNE
Cosmos 1315 Rocket 3.0 13:46:41 10° S 13:50:22 48° E 13:54:05 10° NNE
Cosmos 2263 Rocket 3.0 13:46:18 10° NNW 13:51:18 31° NE 13:56:17 10° E
Okean 1 Rocket 3.6 13:47:40 10° SSW 13:51:56 59° WNW 13:56:13 10° N
Cosmos 1733 2.4 13:50:57 10° NNE 13:52:17 20° ENE 13:53:37 10° SE
Iridium 51 4.2 13:51:20 10° SSE 13:54:19 41° E 13:57:22 10° NNE
Cosmos 292 Rocket 3.8 13:50:36 10° SSW 13:55:24 89° ESE 14:00:15 10° NNE
Sich 1 Rocket 4.3 13:52:28 10° SSW 13:56:55 55° WNW 14:01:21 10° N
Cosmos 1743 3.0 13:54:24 10° N 13:57:24 32° ENE 14:00:21 10° SE
CBERS-1 4.0 13:53:11 10° SSE 13:58:18 78° ENE 14:03:26 10° NNW
CORIOLIS 4.2 13:54:14 10° SE 13:59:25 56° ENE 14:04:40 10° N
Okean 2 Rocket 4.2 13:57:50 10° SW 14:01:59 42° WNW 14:06:12 10° N
Cosmos 2227 Rocket 2.5 13:58:44 10° NNW 14:04:11 46° NE 14:09:37 10° ESE
NOSS 2-2 (D) 4.3 14:03:26 10° S 14:05:58 21° SE 14:07:49 13° E
Cosmos 1626 Rocket 3.5 14:02:02 10° N 14:06:23 70° ENE 14:10:40 10° SSE
MOS 1 Rocket 4.0 14:03:44 10° SE 14:08:18 38° ENE 14:13:06 10° N
Cosmos 724 4.4 14:04:09 10° NW 14:10:17 87° SW 14:16:15 10° SE
IGS 5A 3.3 14:06:26 10° SSE 14:10:24 82° ENE 14:14:24 10° NNW
Cosmos 2084 3.3 14:06:15 10° SW 14:10:28 86° SE 14:13:57 14° NE
Cosmos 2369 Rocket 2.9 14:05:34 10° WSW 14:11:03 49° NW 14:16:36 10° NNE
Cosmos 1943 Rocket 3.9 14:07:53 10° WNW 14:11:53 20° NNW 14:15:52 10° NNE
Cosmos 1900 4.3 14:07:23 10° NW 14:12:29 71° NE 14:17:28 10° SE
Intercosmos 24 3.7 14:08:53 10° N 14:13:08 82° ENE 14:16:42 10° SSE
Thor Agena Rocket 3.5 14:09:26 10° SSE 14:14:39 79° ENE 14:19:50 10° NNW
Cosmos 2084 Rocket 3.4 14:12:04 10° NW 14:16:18 90° W 14:20:31 10° SE
NOSS 2-2 (E) 4.2 14:17:47 10° S 14:20:24 23° SE 14:21:46 17° E
Cosmos 2278 Rocket 3.9 14:17:04 10° WNW 14:21:09 20° NNW 14:25:16 10° NNE
SJ-12 3.9 14:18:07 10° SE 14:21:45 46° ENE 14:25:24 10° N
BlueWalker 3 4.4 14:19:18 10° W 14:22:05 21° SSW 14:24:52 10° SSE
Meteor 1-28 Rocket 2.9 14:21:24 10° NNE 14:24:45 59° ESE 14:28:02 10° S
Cosmos 1356 Rocket 3.4 14:20:43 10° SSW 14:24:47 83° WNW 14:28:55 10° NNE
Cosmos 1697 Rocket 4.0 14:20:58 10° SSE 14:25:01 21° ESE 14:27:16 16° ENE
IRS-1C 4.1 14:19:48 10° SSE 14:25:04 66° ENE 14:30:22 10° NNW
Cosmos 1634 Rocket 4.0 14:20:28 10° S 14:26:40 88° E 14:32:53 10° NNE
CZ-2D R/B 4.3 14:24:19 10° ESE 14:27:53 28° ENE 14:31:25 10° N
IRIDIUM 104 4.4 14:22:49 10° N 14:27:59 55° E 14:33:06 10° SSE
Cosmos 1655 Rocket 4.4 14:22:15 10° N 14:28:05 39° ENE 14:33:51 10° SE
Cosmos 1544 Rocket 3.6 14:23:50 10° S 14:28:09 58° E 14:32:31 10° NNE
Cosmos 1484 Rocket 3.7 14:28:17 10° S 14:31:41 46° W 14:35:05 10° NNW
CENTAUR R/B 2.7 14:26:03 10° SW 14:32:02 86° NW 14:38:16 16° NE
Okean 1-7 Rocket 3.7 14:28:23 10° N 14:32:43 52° ENE 14:37:00 10° SSE
Cosmos 405 Rocket 3.6 14:31:58 10° NNW 14:35:05 43° W 14:38:10 10° S
Meteor 1-20 Rocket 4.1 14:31:25 10° NNW 14:36:56 73° ENE 14:42:23 10° SSE
IRIDIUM 114 4.3 14:31:56 10° N 14:37:09 64° E 14:42:20 10° SSE
Lacrosse 5 rocket 1.0 14:37:09 10° WSW 14:40:53 76° SSE 14:42:46 27° ENE
Cosmos 2279 Rocket 3.9 14:35:09 10° S 14:41:22 81° E 14:47:38 10° NNE
Cosmos 1777 Rocket 4.4 14:36:45 10° S 14:41:39 42° ESE 14:44:59 19° NE
SJ-6F 4.3 14:40:30 10° SSE 14:44:25 60° ENE 14:48:24 10° N
Cosmos 1602 Rocket 3.5 14:40:19 10° NNW 14:44:46 88° ENE 14:49:08 10° S
Cosmos 1461 4.0 14:42:09 10° S 14:45:17 23° ESE 14:46:00 22° ESE
SJ 16-02 3.9 14:44:47 10° NW 14:45:42 11° NNW 14:46:38 10° NNW
USA 281 4.4 14:43:31 18° NE 14:46:03 23° NNE 14:50:58 10° NNW
IRIDIUM 103 4.2 14:41:06 10° N 14:46:21 74° E 14:51:34 10° S
Cosmos 1455 Rocket 4.5 14:42:41 10° SW 14:46:43 37° WNW 14:50:50 10° N
SAR-Lupe-5 4.5 14:47:29 22° NNE 14:49:15 80° ESE 14:52:23 10° SSW
Cosmos 2082 4.2 14:44:39 10° NNW 14:49:59 38° NE 14:53:17 21° E
NOSS 2-2 (C) 2.5 14:47:59 10° SW 14:51:05 89° NW 14:52:06 38° NE
ERS-1 4.4 14:47:16 10° SSE 14:52:18 86° ENE 14:57:18 10° NNW
Cosmos 1656 3.7 14:46:46 10° SSW 14:52:21 71° ESE 14:56:31 19° NE
UNK 3.6 14:48:17 10° NNE 14:52:54 72° ESE 14:57:28 10° S
USA 215 3.3 14:48:07 19° E 14:53:03 80° N 14:59:38 10° W
SMAP 3.5 14:48:43 10° S 14:53:20 65° WSW 14:58:00 10° NNW
Cosmos 1867 3.8 14:49:23 10° NW 14:54:52 72° SW 15:00:17 10° SE
Cosmos 2297 Rocket 3.0 14:51:40 10° NW 14:57:11 53° WSW 15:02:40 10° S
Cosmos 1486 Rocket 4.0 14:53:24 10° SSW 14:58:33 67° ESE 15:02:09 20° NE
YAOGAN 1 2.8 14:54:38 10° SE 14:58:39 41° ENE 15:02:41 10° N
Cosmos 2180 Rocket 4.4 14:52:36 10° S 14:58:43 78° E 15:04:54 10° NNE
Landsat 7 4.0 14:54:11 10° S 14:58:50 73° WSW 15:03:31 10° NNW
Cosmos 2228 4.0 14:56:52 10° SW 15:00:57 46° WNW 15:05:06 10° N
CZ-4C R/B 3.3 14:55:45 10° NW 15:02:19 65° SW 15:10:35 10° SSE
SAR-Lupe-4 4.0 14:59:42 10° S 15:03:13 61° WSW 15:06:47 10° NNW
IRIDIUM 106 4.4 14:59:25 10° N 15:04:41 83° W 15:09:55 10° S
USA 290 4.2 15:03:32 10° NW 15:06:29 31° WSW 15:09:24 10° S
Cosmos 1953 Rocket 3.7 15:03:16 10° N 15:07:38 52° ENE 15:11:58 10° SSE
Resurs 01 Rocket 3.1 15:10:12 20° NNE 15:10:12 20° NNE 15:12:02 10° N
SJ-7 4.3 15:10:03 36° ESE 15:11:07 48° ENE 15:14:46 10° N
Meteor 1-25 Rocket 4.3 15:06:10 10° NNW 15:12:02 83° WSW 15:17:49 10° S
Cosmos 2266 Rocket 4.1 15:06:58 10° NNW 15:13:10 74° W 15:19:13 10° S
Cosmos 1782 3.3 15:09:56 10° SSW 15:13:28 51° WNW 15:16:25 14° N
BREEZE-M DEB (TANK) 3.9 15:10:29 10° WSW 15:13:32 40° S 15:19:47 15° ESE
USA 81 4.2 15:08:55 10° N 15:14:03 48° ENE 15:19:08 10° SSE
ATLAS CENTAUR R/B 4.0 15:12:17 10° W 15:14:07 14° WSW 15:15:54 10° SSW
Cosmos 2219 3.3 15:08:29 10° NNW 15:14:09 56° NE 15:17:39 23° ESE
IRS-P3 4.3 15:09:36 10° SSE 15:14:55 77° WSW 15:20:16 10° NNW
ARIANE 5 R/B 3.3 15:12:42 10° S 15:17:40 54° WSW 15:22:44 10° NNW
Cosmos 1825 Rocket 3.5 15:14:10 10° NNW 15:18:34 84° WSW 15:22:53 10° S
Cosmos 990 Rocket 4.3 15:13:59 10° S 15:18:48 43° ESE 15:19:49 38° ENE
Meteor 1-5 Rocket 4.0 15:14:30 10° NNW 15:19:52 81° ENE 15:25:17 10° SSE
CZ-2D R/B 4.2 15:17:21 10° S 15:20:20 38° W 15:23:19 10° NNW
Lacrosse 4 Rocket 2.7 15:18:19 10° W 15:21:57 31° NW 15:23:35 23° N
NOAA 6 4.0 15:17:13 10° SE 15:22:10 54° ENE 15:27:09 10° N
Cosmos 1680 Rocket 4.1 15:19:14 10° NNW 15:23:58 35° NE 15:23:58 35° NE
BREEZE-M DEB (TANK) 4.1 15:23:43 10° S 15:23:48 11° S 15:23:48 11° S
Cosmos 2151 4.3 15:23:03 10° NNW 15:26:56 39° W 15:30:48 10° SSW
Cosmos 2098 Rocket 3.9 15:22:55 10° SSW 15:27:04 54° WNW 15:32:00 10° N
Cosmos 1980 Rocket 3.3 15:22:33 10° SSE 15:26:13 26° SE 15:26:13 26° SE
SPOT 1/Viking Rocket 3.5 15:22:04 10° SSE 15:27:17 85° WSW 15:32:33 10° NNW
SL-16 R/B 3.4 15:22:31 10° NNE 15:28:30 49° WNW 15:34:26 10° SW
Cosmos 1844 Rocket 3.4 15:23:54 10° NNW 15:29:01 34° NE 15:29:20 34° NE
OceanSat 1 rocket 4.5 15:24:52 10° SSE 15:29:33 64° ENE 15:34:14 10° NNW
NOSS 3-2 (C) 3.2 15:28:42 10° SSW 15:33:49 62° SE 15:35:37 43° ENE
NOSS 3-2 (A) 3.3 15:28:38 10° WSW 15:33:58 79° NW 15:36:44 35° NE
Cosmos 44 Rocket 3.9 15:30:22 10° NW 15:35:11 41° NNE 15:35:34 40° NE
Cosmos 2263 Rocket 2.2 15:30:10 10° NW 15:35:53 87° WSW 15:41:20 11° SSE
GEOS 3 Rocket 3.7 15:38:33 39° NE 15:40:38 82° NW 15:46:02 10° SW
Cosmos 1076 Rocket 3.8 15:43:59 10° NNW 15:48:16 67° W 15:52:32 10° S
Cosmos 2227 Rocket 3.1 15:42:54 10° NW 15:48:20 49° WSW 15:53:44 10° S
Cosmos 2084 4.3 15:45:37 10° W 15:49:30 36° NNW 15:49:40 36° N
Cosmos 1745 Rocket 4.5 15:43:58 10° N 15:48:46 39° NE 15:48:46 39° NE
Cosmos 1538 Rocket 4.1 15:45:36 10° NNW 15:50:53 76° WSW 15:55:59 11° SSE
Cosmos 2360 4.4 15:47:13 10° SW 15:52:56 69° NW 15:55:24 35° NNE
NOSS 2-2 (D) 4.3 15:51:53 10° WSW 15:53:56 34° W 15:53:56 34° W
Cosmos 1933 3.8 15:51:23 10° SSW 15:55:09 55° WNW 15:55:44 48° NW
Cosmos 1244 Rocket 4.3 15:49:01 10° N 15:55:22 79° ENE 16:01:36 10° SSE
Cosmos 2369 Rocket 4.0 15:52:09 10° WNW 15:56:26 21° NNW 15:58:46 17° N
Cosmos 1606 Rocket 3.9 15:52:16 10° SSW 15:56:39 63° WNW 15:58:23 35° N
Cosmos 1943 Rocket 4.0 15:54:12 10° NNW 15:57:46 17° N 15:57:50 17° N
SL-19 R/B 4.4 15:53:49 10° SSE 15:59:13 74° WSW 16:04:57 10° NNW
COSMO-SKYMED 1 4.1 16:02:54 24° S 16:02:54 24° S 16:04:38 10° S
PSLV R/B 3.7 15:59:49 32° S 16:01:30 63° WSW 16:05:33 10° NNW
CZ-2D R/B 4.4 15:58:35 10° S 16:02:39 47° W 16:06:41 10° NNW
Cosmos 1503 Rocket 4.3 15:59:02 10° SW 16:04:15 64° WNW 16:05:55 42° N
Meteor 2-20 4.3 15:59:03 10° S 16:05:13 87° E 16:10:01 18° NNE
Resurs 1-3 4.2 16:01:20 10° S 16:05:34 55° W 16:09:50 10° NNW
Cosmos 2278 Rocket 4.0 16:03:36 10° NNW 16:07:17 18° N 16:07:17 18° N
Cosmos 1697 Rocket 2.5 16:02:37 10° SSW 16:08:15 89° ESE 16:09:00 68° NE
Cosmos 1354 Rocket 4.1 16:07:09 10° SW 16:12:25 74° WNW 16:13:15 61° N
SL-08 R/B 4.4 16:07:25 10° N 16:13:46 87° E 16:20:07 10° S
Lacrosse 5 rocket 2.8 16:14:18 10° W 16:16:22 31° WNW 16:16:22 31° WNW
Cosmos 1386 Rocket 4.3 16:14:22 10° N 16:20:17 75° ENE 16:20:17 75° ENE
Cosmos 1461 4.2 16:17:47 10° SW 16:20:09 34° WSW 16:20:09 34° WSW
Cosmos 1726 Rocket 4.4 16:17:32 10° SSW 16:22:03 51° WNW 16:22:51 45° NW
SKYMED 2 4.2 16:22:23 53° W 16:22:23 53° W 16:26:19 10° SW
CENTAUR R/B 3.3 16:17:04 10° W 16:23:28 50° N 16:25:22 42° NNE
Cosmos 1844 4.3 16:21:27 10° NNW 16:25:30 43° N 16:25:30 43° N
Meteor 2-20 Rocket 4.3 16:21:09 10° S 16:27:23 89° W 16:28:21 66° N
USA 281 3.6 16:30:23 48° NNE 16:30:23 48° NNE 16:35:45 10° NNW
Cosmos 923 Rocket 4.3 16:27:56 10° NNW 16:32:21 61° NW 16:32:21 61° NW
USA 238 DEB 4.0 16:27:58 10° SSW 16:32:29 46° S 16:32:29 46° S
USA 238 4.0 16:28:05 10° SSW 16:32:34 45° S 16:32:34 45° S
Cosmos 2082 4.0 16:28:46 10° NW 16:34:25 63° WSW 16:35:10 57° SSW
YAOGAN 1 4.3 16:30:51 10° SSW 16:34:37 30° W 16:38:25 10° NNW
USA 215 3.1 16:35:28 70° SSE 16:36:10 78° SSW 16:42:46 10° WNW
Resurs 01 Rocket 3.9 16:47:36 18° NNW 16:47:36 18° NNW 16:48:49 10° NNW
Cosmos 2219 4.4 16:52:53 10° NW 16:58:09 38° WSW 16:59:37 33° SW
Lacrosse 4 Rocket 4.3 16:58:32 10° NW 16:59:05 12° NW 16:59:05 12° NW
Cosmos 1980 Rocket 3.6 17:05:09 10° SW 17:08:01 31° SW 17:08:01 31° SW
Cosmos 1844 Rocket 4.0 17:07:45 10° NW 17:10:58 35° NW 17:10:58 35° NW
Cosmos 2263 Rocket 4.4 17:14:58 10° NW 17:19:03 21° W 17:23:08 10° SSW
NOSS 3-2 (C) 4.5 17:19:22 10° W 17:23:02 40° WNW 17:23:02 40° WNW
CENTAUR R/B 4.1 18:08:24 10° WNW 18:12:27 35° NW 18:12:27 35° NW
